Caribou, ME

11:37 AM EST on February 06, 2016 (GMT -0500)
Caribou Municipal

Weather History for KCAR - June, 2014

Change the Weather History Date:

Tuesday, June 3, 2014

  Actual Average Record
Temperature  
Mean Temperature 68 °F 57 °F  
Max Temperature 79 °F 68 °F 88 °F (1963)
Min Temperature 57 °F 46 °F 34 °F (1944)
Degree Days  
Heating Degree Days 0 8  
Month to date heating degree days 5 25  
Since 1 June heating degree days 5 25  
Since 1 July heating degree days 9417 9214  
Cooling Degree Days 3 0  
Month to date cooling degree days 5 0  
Year to date cooling degree days 8 5  
Since 1 June cooling degree days 5 0  
Growing Degree Days 19 (Base 50)    
Moisture  
Dew Point 49 °F    
Average Humidity 51    
Maximum Humidity 69    
Minimum Humidity 32    
Precipitation  
Precipitation T in 0.10 in 0.96 in (2010)
Month to date precipitation T 0.31  
Year to date precipitation 17.20 13.73  
Snow  
Snow 0.00 in 0.00 in 0.00 in (2002)
Month to date snowfall 0.0 0.0  
Since 1 June snowfall 0.0 0.0  
Since 1 July snowfall 150.7 108.7  
Snow Depth 0.00 in    
Sea Level Pressure  
Sea Level Pressure 29.97 in    
Wind  
Wind Speed 10 mph (SSE)    
Max Wind Speed 22 mph    
Max Gust Speed 30 mph    
Visibility 10 miles    
Events Rain    
T = Trace of Precipitation, MM = Missing Value Source: NWS Daily Summary

Daily Weather History Graph

Daily Weather History Graph

Search for Another Location

Airport or City:

Trip Planner

Search our weather history database for the weather conditions in past years. The results will help you decide how hot, cold, wet, or windy it might be!

Date:

Astronomy

Jun. 03, 2014 Rise Set
Actual Time 4:40 AM EDT 8:20 PM EDT
Civil Twilight 4:01 AM EDT 8:59 PM EDT
Nautical Twilight 3:09 AM EDT 9:51 PM EDT
Astronomical Twilight 1:58 AM EDT 11:03 PM EDT
Moon 10:13 AM EDT (6/3) No Moon Set
Length of Visible Light 16h 57m
Length of Day
15h 40m
Waxing Crescent, 30% of the Moon is Illuminated
Jun 3
Waxing Crescent
Jun 5
First Quarter
Jun 13
Full
Jun 19
Last Quarter
Jun 27
New

Hourly Weather History & Observations

Time (EDT) Temp. Dew Point Humidity Pressure Visibility Wind Dir Wind Speed Gust Speed Precip Events Conditions
12:54 AM 64.9 °F 52.0 °F 63% 30.00 in 10.0 mi South 5.8 mph - N/A   Overcast
1:54 AM 64.9 °F 50.0 °F 58% 29.99 in 10.0 mi South 8.1 mph - N/A   Overcast
2:54 AM 62.1 °F 51.1 °F 67% 29.99 in 10.0 mi South 6.9 mph - 0.00 in Rain Light Rain
3:54 AM 62.1 °F 50.0 °F 65% 29.99 in 10.0 mi South 6.9 mph - 0.00 in   Overcast
4:54 AM 61.0 °F 50.0 °F 67% 29.99 in 10.0 mi South 9.2 mph - N/A   Overcast
5:54 AM 60.1 °F 50.0 °F 69% 30.01 in 10.0 mi SSE 6.9 mph - N/A   Scattered Clouds
6:54 AM 60.1 °F 50.0 °F 69% 30.01 in 10.0 mi SE 5.8 mph - N/A   Clear
7:54 AM 61.0 °F 50.0 °F 67% 30.02 in 10.0 mi SE 6.9 mph - N/A   Clear
8:54 AM 63.0 °F 51.1 °F 65% 30.02 in 10.0 mi SE 11.5 mph - N/A   Overcast
9:54 AM 64.9 °F 52.0 °F 63% 30.04 in 10.0 mi SSE 11.5 mph - N/A   Partly Cloudy
10:54 AM 64.9 °F 52.0 °F 63% 30.03 in 10.0 mi SSE 8.1 mph - N/A   Overcast
11:54 AM 69.1 °F 53.1 °F 57% 30.01 in 10.0 mi South 13.8 mph - N/A   Overcast
12:54 PM 73.0 °F 54.0 °F 51% 30.00 in 10.0 mi South 9.2 mph 17.3 mph N/A   Scattered Clouds
1:54 PM 75.9 °F 52.0 °F 43% 29.97 in 10.0 mi SSE 15.0 mph 24.2 mph N/A   Clear
2:54 PM 78.1 °F 51.1 °F 39% 29.95 in 10.0 mi SSE 17.3 mph 28.8 mph N/A   Clear
3:54 PM 79.0 °F 48.0 °F 34% 29.92 in 10.0 mi SSE 17.3 mph 25.3 mph N/A   Clear
4:54 PM 78.1 °F 46.0 °F 32% 29.91 in 10.0 mi SSE 18.4 mph 26.5 mph N/A   Clear
5:54 PM 77.0 °F 48.0 °F 36% 29.90 in 10.0 mi South 16.1 mph 26.5 mph N/A   Clear
6:54 PM 75.0 °F 45.0 °F 34% 29.91 in 10.0 mi South 12.7 mph 20.7 mph N/A   Clear
7:08 PM 73.9 °F 45.0 °F 35% 29.90 in 10.0 mi South 15.0 mph - N/A   Partly Cloudy
7:54 PM 72.0 °F 45.0 °F 38% 29.92 in 10.0 mi South 11.5 mph - N/A   Clear
8:54 PM 69.1 °F 44.1 °F 40% 29.94 in 10.0 mi South 10.4 mph - N/A   Clear
9:54 PM 64.9 °F 45.0 °F 48% 29.94 in 10.0 mi South 8.1 mph - N/A   Clear
11:54 PM 59.0 °F 45.0 °F 60% 29.94 in 10.0 mi South 4.6 mph - N/A   Clear